Погода в Керчи

Погода в Керчи : погода сейчас, прогноз погоды и архив. Всё, что Вы хотите узнать о погоде в Керчи!

Поиск расширенной информации на нашем сайте:

Другие новости

Новости СМИ2

Главная страница сайта

Новости сайта

03.07.2017

Напоминаем, что на нашем специализированном сайте Метеоцентр.Азия вы можете получить высокодетализированные автоматические прогнозы погоды по пунктам России, СНГ и мира в авиационном формате (включающие направление и скорость ветра, видимость, явления погоды, количество и форму облачности, нижнюю и верхнюю границу облачности).


Погода в Керчи - сегодня

Время (UTC), дата Ветер
(°,м/с) 
Видим.   Явления Облачность Т
(°С)
Тd
(°С)
f(%) Тe
(°С)
Pmin
(гПа)
dP
(гПа)
Po
(мм)
O2
(г/м3)
Тmin Tmax R s Состояние
почвы
15 17.10.17 280 (З) 7-12{13}  10 км    ясно 
+20.1 +11 56 +22  1020.7  -0.8  761  284           
18 17.10.17 270 (З) 6{12}  10 км    ясно 
+16 +10.3 69 +17  1021.5  0.7  762  288    +23       
21 17.10.17 280 (З) 6{10}  10 км    ясно 
+14.9 +9.9 72 +15  1021.9  0.4  762  289           
00 18.10.17 310 (СЗ) 10 км    ясно 
+12.5 +9.2 80 +12  1022.2  0.2  762  292           
03 18.10.17 тихо ()   10 км    ясно 
+13 +11.1 88 +15  1022.4  0.2  762  291  +12.1         
06 18.10.17 330 (СЗ) 10 км    10/6 300 м средняя, верхняя 
[Sc|Ac trans|Ci fib]
+14.6 +12.8 89 +20  1024  1.7  764  290  +12.1         
09 18.10.17 360 (С) 10 км    10/4 600 м средняя, верхняя 
[Cu hum|Ac trans|Ci fib]
+19.3 +12.3 64 +24  1023.2  -0.7  763  285           
12 18.10.17 150 (ЮВ) 10 км    10/3 600 м средняя, верхняя 
[Cu hum|Ac trans|Ci fib]
+17.8 +13 73 +23  1022.1  -1.2  762  286           
15 18.10.17 180 (Ю) 10 км    10/3 300 м средняя 
[Sc|Ac und]
+16.5 +13.1 80 +22  1022.1  762  287           
18 18.10.17 200 (Ю) 10 км    8/8 300 м 
[Sc]
+14.2 +12.7 91 +20  1022.4  0.3  762  290    +19.9       
21 18.10.17 170 (Ю) 10 км    4/4 600 м 
[Sc]
+14.3 +12.6 90 +19  1021.7  -0.7  762  289           
00 19.10.17 160 (Ю) 10 км    3/3 600 м 
[Sc]
+13.9 +12.6 92 +18  1021.4  -0.3  762  290           
03 19.10.17 230 (ЮЗ) 10 км    3/3 600 м 
[Sc]
+13.5 +12.4 93 +19  1020.7  -0.7  761  290  +12.4         
06 19.10.17 тихо ()   10 км    10/8 600 м кучево-дожд., средняя 
[Cb calv|Ac und]
+15.1 +13.8 92 +21  1021.1  0.4  761  288  +12.4         
09 19.10.17 200 (Ю) 10 км    10/8 600 м кучево-дожд., средняя 
[Cb calv|Ac und]
+18.5 +12.6 68 +23  1020.9  -0.1  761  285           
12 19.10.17 150 (ЮВ) 10 км    8/8 1000 м 
[Sc diur, vesp]
+19 +13.6 71 +25  1020  -0.9  761  284           
15 19.10.17 200 (Ю) 10 км    3/0 средняя 
[Ac trans]
+15.6 +12 79 +20  1020  -0.1  761  288           
18 19.10.17 230 (ЮЗ) 10 км    ясно 
+12.3 +11 92 +14  1019.9  -0.2  760  291    +20.6       
21 19.10.17 230 (ЮЗ) 10 км    ясно 
+10.6 +9.4 92 +11  1019.4  -0.5  760  293           
00 20.10.17 230 (ЮЗ) 10 км    ясно 
+11.2 +10.1 93 +12  1019.2  -0.2  760  292           
03 20.10.17 тихо ()   1000 м  дымка  10/10 200 м 
[St]
+11.6 +11.4 99 +14  1019.2  760  292  +9.3         
06 20.10.17 тихо ()   0200 м  туман  ?/?  
+12 +12 100 +16  1019.6  0.4  760  291  +9.3         
09 20.10.17 200 (Ю) 10 км    5/4 600 м верхняя 
[Sc|Cc]
+16.9 +12.4 75 +21  1019.6  0.1  760  286           
12 20.10.17 350 (С) 10 км  {туман}  3/1 600 м верхняя 
[Sc|Ci fib]
+19.4 +13 66 +25  1018.5  -1  760  283           
15 20.10.17 350 (С) 10 км    8/6 600 м верхняя 
[Sc|Ci fib]
+13.4 +11.6 89 +16  1018.7  0.1  760  290           
Время (UTC), дата Ветер
(°,м/с) 
Видим.   Явления Облачность Т
(°С)
Тd
(°С)
f(%) Тe
(°С)
Pmin
(гПа)
dP
(гПа)
Po
(мм)
O2
(г/м3)
Тmin Tmax R s Состояние
почвы

Для получения пояснительной информации подведите курсор к названию столбца.

ПОГОДА в Керчи - архив

Всё, что Вы хотите узнать о погоде в Керчи - удобно и подробно!

Выберите нужную дату (начиная с 1 января 2015* года) и нажмите кнопку "Найти".
Будут отображены архивные сводки погоды по пункту Керчь, начиная с указанной даты.


Отображать данные в формате CSV (для использования в таблицах Excel)


Внимание! Наш архив погоды предназначен исключительно для личного некоммерческого использования в познавательных целях. Если Вам необходимы официальные справки о состоянии погоды (для производственных, юридических, коммерческих и т.п. целей), обращайтесь в органы Росгидромета.

*Примечание: данная дата относится к архиву по метеостанциям СССР (Россия, СНГ, Балтия).
Архив по метеостанциям Зарубежной Европы и Азии (кроме Китая) хранится 10 дней, по другим регионам земного шара (Китай, Африка, Америка, Австралия, Океания) - 1 день.

Керчь - район местоположения метеостанции


Название, широта, долгота, высота метеостанции:
Керчь 45.4°ш. 36.4°д. 49 м над ур. моря [Российская Федерация]

Дополнительная информация

В oтличие oт бoльшинства пoгoдных сайтoв мы публикуем пoдрoбную метеoинфoрмацию в детальнoм прoфессиoнальнoм фoрмате.

Характеристики температуры и влажнoсти вoздуха измеряются на высoте 2 м в тени вдали oт зданий и деревьев.
Скoрoсть ветра измеряется на высoте 10 м (на урoвне рoста челoвека скoрoсть ветра ниже в 1.5-2 раза). Если метеoстанция нахoдится в гoрoде или в лесу, тo скoрoсть ветра занижена на 2-4 м/с пo сравнению с oткрытым местoм. Скoрoсть ветра над акватoриями крупных рек и oзёр, а также на вершинах хoлмoв на 2-5 м/с выше, чем в oбычных услoвиях.
Атмoсфернoе давление в разных тoчках местнoсти мoжет значительнo oтличаться oт давления на метеoстанции, в зависимoсти oт услoвий рельефа (при пoдъёме на 10 м давление пoнижается примернo на 1 мм рт.ст.).